GLOBALSTAR M096 [+] (39075 NORAD) Tracking and Keplerian Element Data

This shows tracking and keplerian element data for the satellite.

Feedback or suggestion? Click here.




ElementValue
Catalog39075
NameGLOBALSTAR M096 [+]
Epoch Orbit25311
Epoch Day202.94044358
Epoch Year2018
RAAN348.1806
Inclination52.0091
Eccentricity0.0001242
Argument of Perigee97.1972
Mean Anonmoly262.9036
Mean Motion12.62270327
Decay Rate-9.3E-07
L11 39075U 13005D 18202.94044358 -.00000093 00000-0 58811-4 0 9993
L22 39075 52.0091 348.1806 0001242 97.1972 262.9036 12.62270327253119

Live tracking and technical data element details for GLOBALSTAR M096 [+] (NORAD 39075). GLOBALSTAR M096 [+] can be tracked NOW for your location showing map with azimuth and elevation plus other details from your city location.

Track the satellite on the map from your city or location and see movement details for azimuth, elevation, latitude, longitude, range, height, and movement on the map or in text.







IsCatalogInMostPopularTable: catalog: 39075, numindb: 53
Update: records affected: 1



GetName: 39075 GLOBALSTAR M096 [+]

Hit Count: updated at: Mon, 23 Jul 2018 07:29:14 GMT